logo meteotoscana

Diretta Meteo Franklin-J B Rose, Stati Uniti (USA)mercoledì 6 maggio ore 11:15

Mappa
Sereno 21 °C Coperto 24 Ore: T.min 15 T.max 29
Ponente Sud Km/h 13 Punto di rugiada: 14 °C Umidità: 64% Visibilità: 10 Km
Il sole sorge alle: 06:06 Il sole tramonta alle: 20:01
6 Maggio 2026 11:15 tempo osservato: Coperto Coperto 21 64 1015 vento: Nord S 13
6 Maggio 2026 10:55 tempo osservato: Coperto Coperto 20 68 1015 vento: Nord S/SO 20.3
6 Maggio 2026 10:35 tempo osservato: Pioggia Pioggia 20 68 1015 vento: Nord S/SO 16.7
6 Maggio 2026 10:15 tempo osservato: Coperto Coperto 20 68 1015 vento: Nord S 13
6 Maggio 2026 09:55 tempo osservato: Pioggia Pioggia 20 68 1014 vento: Nord S 13
6 Maggio 2026 09:35 tempo osservato: Sereno Sereno 21 60 1014 vento: Nord S/SO 20.3
6 Maggio 2026 09:15 tempo osservato: Sereno Sereno 20 64 1014 vento: Nord S/SO 20.3
6 Maggio 2026 08:55 tempo osservato: Sereno Sereno 20 64 1014 vento: Nord S/SO 18.5
6 Maggio 2026 08:35 tempo osservato: Sereno Sereno 20 64 1014 vento: Nord S 18.5
6 Maggio 2026 08:15 tempo osservato: Sereno Sereno 18 72 1014 vento: Nord S 18.5
6 Maggio 2026 07:55 tempo osservato: Sereno Sereno 18 72 1015 vento: Nord S 20.3
6 Maggio 2026 07:35 tempo osservato: Sereno Sereno 17 72 1015 vento: Nord S 16.7
6 Maggio 2026 07:15 tempo osservato: Sereno Sereno 17 72 1015 vento: Nord S 14.8
6 Maggio 2026 06:55 tempo osservato: Sereno Sereno 16 77 1015 vento: Nord S 13
6 Maggio 2026 06:35 tempo osservato: Sereno Sereno 16 77 1014 vento: Nord S 11.1
6 Maggio 2026 06:15 tempo osservato: Sereno Sereno 16 77 1014 vento: Nord S 11.1
6 Maggio 2026 05:55 tempo osservato: Sereno Sereno 15 82 1014 vento: Nord S 11.1
6 Maggio 2026 05:35 tempo osservato: Sereno Sereno 16 72 1014 vento: Nord S 11.1
6 Maggio 2026 05:15 tempo osservato: Sereno Sereno 16 72 1014 vento: Nord S 11.1
6 Maggio 2026 04:55 tempo osservato: Sereno Sereno 16 72 1015 vento: Nord S 13
6 Maggio 2026 04:35 tempo osservato: Sereno Sereno 16 72 1015 vento: Nord S 11.1
6 Maggio 2026 04:15 tempo osservato: Sereno Sereno 17 67 1015 vento: Nord S 11.1
6 Maggio 2026 03:55 tempo osservato: Sereno Sereno 17 67 1015 vento: Nord S 14.8
6 Maggio 2026 03:35 tempo osservato: Sereno Sereno 17 67 1015 vento: Nord S 13
6 Maggio 2026 03:15 tempo osservato: Sereno Sereno 17 67 1015 vento: Nord S 11.1
6 Maggio 2026 02:55 tempo osservato: Sereno Sereno 17 67 1015 vento: Nord S 14.8
6 Maggio 2026 02:35 tempo osservato: Sereno Sereno 18 63 1015 vento: Nord S 16.7
6 Maggio 2026 01:55 tempo osservato: Sereno Sereno 18 63 1015 vento: Nord S/SO 16.7
6 Maggio 2026 01:35 tempo osservato: Sereno Sereno 18 63 1015 vento: Nord S 14.8
6 Maggio 2026 01:15 tempo osservato: Sereno Sereno 18 63 1016 vento: Nord S/SO 13
6 Maggio 2026 00:55 tempo osservato: Sereno Sereno 18 63 1016 vento: Nord S 18.5
6 Maggio 2026 00:35 tempo osservato: Sereno Sereno 18 63 1016 vento: Nord S 14.8
6 Maggio 2026 00:15 tempo osservato: Sereno Sereno 19 59 1016 vento: Nord S 18.5
5 Maggio 2026 23:55 tempo osservato: Sereno Sereno 19 59 1016 vento: Nord S 14.8
5 Maggio 2026 23:35 tempo osservato: Sereno Sereno 19 59 1016 vento: Nord S 18.5
5 Maggio 2026 23:15 tempo osservato: Sereno Sereno 19 63 1016 vento: Nord S 20.3
5 Maggio 2026 22:55 tempo osservato: Sereno Sereno 19 63 1016 vento: Nord S 22.2
5 Maggio 2026 22:35 tempo osservato: Sereno Sereno 20 59 1016 vento: Nord S 16.7
5 Maggio 2026 22:15 tempo osservato: Sereno Sereno 20 59 1015 vento: Nord S 16.7
5 Maggio 2026 21:55 tempo osservato: Sereno Sereno 21 56 1015 vento: Nord S 22.2
5 Maggio 2026 21:35 tempo osservato: Sereno Sereno 21 56 1015 vento: Nord S 18.5
5 Maggio 2026 21:15 tempo osservato: Sereno Sereno 21 56 1015 vento: Nord S 14.8
5 Maggio 2026 20:55 tempo osservato: Sereno Sereno 22 53 1015 vento: Nord S 14.8
5 Maggio 2026 20:35 tempo osservato: Sereno Sereno 23 46 1014 vento: Nord S 18.5
5 Maggio 2026 20:15 tempo osservato: Sereno Sereno 23 46 1014 vento: Nord S 24
5 Maggio 2026 19:55 tempo osservato: Sereno Sereno 24 43 1014 vento: Nord S 18.5
5 Maggio 2026 19:35 tempo osservato: Sereno Sereno 25 38 1014 vento: Nord S 14.8
5 Maggio 2026 19:15 tempo osservato: Sereno Sereno 25 38 1014 vento: Nord S 16.7
5 Maggio 2026 18:55 tempo osservato: Sereno Sereno 26 36 1014 vento: Nord S 18.5
5 Maggio 2026 18:35 tempo osservato: Sereno Sereno 27 32 1014 vento: Nord S 20.3
5 Maggio 2026 18:15 tempo osservato: Sereno Sereno 27 32 1014 vento: Nord S 20.3
5 Maggio 2026 17:55 tempo osservato: Sereno Sereno 27 32 1014 vento: Nord S 18.5
5 Maggio 2026 17:35 tempo osservato: Sereno Sereno 26 31 1014 vento: Nord S/SO 22.2
5 Maggio 2026 17:15 tempo osservato: Sereno Sereno 27 32 1014 vento: Nord S 16.7
5 Maggio 2026 16:55 tempo osservato: Sereno Sereno 28 28 1014 vento: Nord S 24
5 Maggio 2026 16:35 tempo osservato: Sereno Sereno 27 30 1014 vento: Nord S/SO 22.2
5 Maggio 2026 16:15 tempo osservato: Sereno Sereno 28 28 1014 vento: Nord S 20.3
5 Maggio 2026 15:55 tempo osservato: Sereno Sereno 28 26 1014 vento: Nord S/SO 25.9
5 Maggio 2026 15:35 tempo osservato: Sereno Sereno 28 26 1014 vento: Nord S 25.9
5 Maggio 2026 15:15 tempo osservato: Sereno Sereno 29 25 1015 vento: Nord S/SO 20.3
5 Maggio 2026 14:55 tempo osservato: Sereno Sereno 28 24 1015 vento: Nord S/SO 22.2
5 Maggio 2026 14:35 tempo osservato: Sereno Sereno 28 24 1015 vento: Nord S/SO 22.2
5 Maggio 2026 14:15 tempo osservato: Sereno Sereno 28 26 1015 vento: Nord S/SO 20.3
5 Maggio 2026 13:55 tempo osservato: Sereno Sereno 28 26 1015 vento: Nord S 22.2
5 Maggio 2026 13:35 tempo osservato: Sereno Sereno 27 28 1015 vento: Nord S/SO 18.5
5 Maggio 2026 13:15 tempo osservato: Sereno Sereno 27 28 1015 vento: Nord S/SO 22.2
5 Maggio 2026 12:55 tempo osservato: Sereno Sereno 26 29 1016 vento: Nord S/SO 18.5
5 Maggio 2026 12:35 tempo osservato: Sereno Sereno 26 31 1016 vento: Nord O 24
5 Maggio 2026 12:15 tempo osservato: Sereno Sereno 26 31 1016 vento: Nord SO 20.3
5 Maggio 2026 11:55 tempo osservato: Sereno Sereno 26 31 1016 vento: Nord SO 13
5 Maggio 2026 11:35 tempo osservato: Sereno Sereno 25 36 1017 vento: Nord SO 18.5